Location: Stamford Observatory
(41.1241°N, 73.5498°W)
Time: 23:34:07
(UTC-04:00)

Daily predictions for brighter satellites

Satellite Brightness Start Highest point End
(mag) Time Altitude Azimuth Time Altitude Azimuth Time Altitude Azimuth
Cosmos 2333 Rocket 2.8 20:51:40 10° NNW 20:57:13 57° WSW 21:02:42 10° S
Tiangong 1 0.7 20:57:41 10° WSW 21:00:27 64° SSE 21:03:14 10° E
SAR-Lupe-4 3.8 20:59:50 10° SSE 21:03:20 55° ENE 21:06:51 10° N
Aureole 2 Rocket 3.4 20:59:19 10° NNW 21:03:22 57° WSW 21:07:09 10° S
Okean 3 Rocket 4.3 21:02:03 10° SSE 21:06:09 36° E 21:10:15 10° NNE
Cosmos 2221 3.3 21:03:05 10° N 21:07:11 37° ENE 21:11:15 10° SE
Envisat 3.4 21:05:05 10° S 21:10:07 66° WSW 21:15:12 10° NNW
Meteor 1-29 2.9 21:07:56 10° NNE 21:11:21 67° E 21:14:47 10° S
USA 186 4.0 21:17:28 10° SW 21:18:49 14° W 21:20:08 10° WNW
Cosmos 1140 Rocket 3.6 21:16:33 10° SSW 21:21:43 81° WNW 21:26:54 10° NNE
Cosmos 2082 4.3 21:16:21 10° SW 21:21:54 64° WNW 21:27:32 10° NNE
USA 32 4.0 21:16:51 10° S 21:22:05 80° E 21:27:22 10° N
SAR-Lupe-1 4.0 21:19:11 10° SSE 21:22:46 85° ENE 21:26:23 10° NNW
Cosmos 1570 Rocket 4.4 21:18:13 10° N 21:23:26 52° ENE 21:28:16 11° SE
Cosmos 1242 Rocket 3.5 21:22:00 10° N 21:25:25 34° ENE 21:28:21 13° SE
Cosmos 2297 Rocket 2.9 21:23:00 10° SW 21:28:34 60° WNW 21:34:11 10° NNE
USA 245 4.3 21:26:12 13° ESE 21:28:37 28° ENE 21:32:01 10° N
Resurs 01 Rocket 4.2 21:26:15 10° SW 21:29:18 18° W 21:32:22 10° NW
Cosmos 1939 Rocket 4.1 21:29:23 10° S 21:33:09 41° W 21:36:59 10° NNW
H-2A ROCKET BODY 3.8 21:35:19 13° SE 21:35:19 13° SE 21:38:40 10° ESE
Cosmos 1867 3.7 21:31:01 10° SSW 21:36:17 55° ESE 21:41:38 10° NE
Cosmos 2100 Rocket 4.1 21:32:58 10° N 21:39:16 68° E 21:45:23 11° SSE
Cosmos 1459 Rocket 4.1 21:33:04 10° N 21:39:20 63° E 21:45:04 12° SSE
Cosmos 2061 Rocket 4.2 21:33:44 10° N 21:40:01 58° E 21:45:43 13° SSE
MetOp-B 4.2 21:35:50 11° SSE 21:40:54 69° ENE 21:46:14 10° N
Cosmos 2263 Rocket 3.9 21:40:06 11° ESE 21:41:18 12° E 21:43:24 10° ENE
H-2A R/B 4.3 21:40:55 10° E 21:42:42 12° ENE 21:44:29 10° NE
Cosmos 1340 Rocket 3.7 21:40:32 10° SSW 21:44:27 52° WNW 21:48:25 10° N
Cosmos 1300 4.2 21:45:10 10° NNE 21:48:16 23° ENE 21:50:00 17° ESE
ATLAS 5 CENTAUR R/B 1.9 21:44:32 10° SW 21:49:10 81° NW 21:54:14 10° NNE
Cosmos 2173 Rocket 4.0 21:46:19 10° N 21:52:30 78° E 21:58:07 13° SSE
SPOT 5 3.0 21:49:06 16° SSE 21:52:49 64° ENE 21:57:49 10° N
Cosmos 1850 Rocket 4.2 21:48:13 10° SSW 21:53:23 74° WNW 21:58:36 10° NNE
Lacrosse 5 2.8 21:50:07 10° NNW 21:54:52 39° NE 21:58:58 13° ESE
YAOGAN 6 4.3 21:52:04 10° SSW 21:55:18 30° W 21:58:36 10° NNW
Cosmos 2084 3.2 21:51:30 10° SW 21:55:31 87° NW 21:59:23 10° NE
Cosmos 2237 Rocket 4.0 21:52:30 10° NW 21:57:04 26° WSW 22:01:38 10° SSW
Cosmos 1726 2.9 21:53:44 10° N 21:57:09 36° ENE 21:58:49 23° SE
Cosmos 468 Rocket 4.5 21:53:24 10° N 21:58:21 46° ENE 22:01:35 20° SE
USA 234 3.2 21:51:55 10° NE 21:58:29 73° SE 22:04:59 10° SW
Cosmos 371 Rocket 4.3 21:58:41 10° N 22:03:03 33° ENE 22:05:42 19° ESE
CZ-3B R/B 4.0 22:00:18 10° SW 22:03:21 86° SE 22:14:03 10° NE
Cosmos 1603 4.1 21:58:16 10° NNW 22:03:48 52° ENE 22:07:25 21° SE
H-2A R/B 2.3 22:00:47 20° SE 22:04:26 59° ENE 22:09:46 10° N
ERS-1 Rocket 3.7 22:01:45 10° S 22:06:38 51° W 22:11:33 10° NNW
Atlas Centaur 2 3.2 22:05:25 10° SW 22:06:40 12° SSW 22:06:40 12° SSW
SS 2 4.5 22:07:22 10° NW 22:10:16 88° SW 22:11:27 35° SSE
Cosmos 1802 Rocket 4.0 22:04:59 10° N 22:11:10 88° W 22:16:08 16° S
Abrixas rocket 4.0 22:09:22 10° NW 22:12:14 28° NNE 22:14:57 11° ENE
Cosmos 1818 3.9 22:07:19 10° NW 22:12:40 59° WSW 22:16:16 21° S
Cosmos 1725 Rocket 4.2 22:07:48 10° N 22:13:58 58° E 22:17:52 23° SSE
Cosmos 1674 3.8 22:13:29 10° SSW 22:17:05 42° WNW 22:20:41 10° N
Cosmos 1908 4.2 22:13:24 10° NNW 22:17:06 42° W 22:20:03 15° SSW
SL-16 R/B 3.2 22:15:29 10° NW 22:20:45 40° WSW 22:25:10 14° S
Cosmos 1943 4.1 22:15:49 10° N 22:21:01 37° ENE 22:24:10 21° ESE
Cosmos 1455 4.4 22:20:11 10° NE 22:22:06 13° ENE 22:22:49 13° E
Cosmos 220 Rocket 4.3 22:20:53 28° SSE 22:22:54 48° ESE 22:27:09 10° NNE
Landsat 7 4.0 22:20:56 27° SE 22:23:22 61° ENE 22:28:04 10° N
ARGOS 3.5 22:20:18 17° S 22:24:29 61° WSW 22:29:52 10° NNW
Cosmos 1408 Rocket 3.9 22:23:36 13° SSW 22:27:18 62° W 22:31:36 10° N
Tiangong 1 1.3 22:33:20 10° W 22:36:05 58° N 22:36:45 41° NE
DMSP B5D2-2 4.0 22:31:46 10° NNE 22:37:01 74° ESE 22:40:08 25° S
Cosmos 1864 Rocket 4.5 22:31:19 10° N 22:37:42 87° E 22:41:31 26° S
Terra 2.0 22:36:22 33° SE 22:38:19 60° ENE 22:43:01 10° N
Cosmos 2058 3.4 22:38:51 37° ESE 22:39:38 41° E 22:43:37 10° NNE
Cosmos 1703 4.1 22:40:50 33° E 22:41:08 33° E 22:44:44 10° NNE
Cosmos 2016 Rocket 4.4 22:36:56 10° NNW 22:43:05 59° W 22:47:31 19° SSW
Meteor 1-11 4.3 22:40:37 29° SSE 22:43:34 62° E 22:49:18 10° NNE
Cosmos 1356 3.7 22:44:13 47° E 22:44:15 47° E 22:47:38 10° NNE
Cosmos 1500 Rocket 3.5 22:45:14 38° S 22:46:52 73° E 22:51:19 10° NNE
Cosmos 332 Rocket 4.0 22:47:45 10° NNW 22:52:38 67° WSW 22:54:33 36° S
ERBS 2.9 22:50:54 10° NW 22:54:12 47° NE 22:54:40 44° ENE
Cosmos 2151 2.9 22:54:01 47° SSE 22:55:10 75° E 22:59:29 10° NNE
CZ-2C R/B 4.5 22:52:40 10° ENE 22:55:28 14° E 22:55:34 14° E
Cosmos 1814 Rocket 4.1 22:50:42 10° NNW 22:56:03 76° WSW 22:58:11 37° S
CARTOSAT-1 3.5 22:55:32 46° S 22:56:48 85° W 23:01:08 10° NNW
Meteor 1-27 4.2 22:52:17 10° N 22:58:08 77° E 23:00:29 38° SSE
RESURS DK-1 2.8 22:54:17 10° NW 22:58:21 53° WSW 22:59:21 42° SSW
SPOT 1/Viking Rocket 4.4 22:56:36 22° SSW 22:59:27 41° W 23:04:20 10° NNW
Cosmos 1486 Rocket 3.9 22:57:03 27° SSW 23:00:00 89° ESE 23:05:21 10° NNE
Spot 4 4.2 23:00:17 39° ESE 23:01:41 53° ENE 23:06:26 10° N
Cosmos 1805 Rocket 4.4 23:05:44 34° E 23:05:48 34° E 23:09:42 10° NNE
Cosmos 2233 Rocket 3.9 23:02:22 10° N 23:08:38 86° W 23:11:20 36° S
Cosmos 304 Rocket 4.4 23:04:41 10° N 23:09:18 44° ENE 23:10:27 37° ESE
Cosmos 841 Rocket 3.4 23:04:22 10° NNW 23:09:39 87° ENE 23:11:13 47° SSE
Cosmos 2228 Rocket 4.1 23:08:22 10° NNW 23:12:42 41° W 23:14:28 28° SW
Cosmos 1763 Rocket 3.5 23:08:00 10° NNW 23:13:06 68° WSW 23:14:35 44° S
Cosmos 1515 Rocket 4.2 23:10:38 10° NNW 23:14:48 47° W 23:16:02 36° SW
H-2A R/B 2.2 23:17:20 51° SSW 23:18:12 64° WSW 23:22:27 10° NNW
Cosmos 1151 Rocket 3.6 23:19:36 10° NNW 23:23:52 50° W 23:24:51 41° SW
Cosmos 2263 Rocket 2.1 23:21:44 32° SSW 23:24:23 85° WNW 23:30:00 10° NNE
Cosmos 1626 2.4 23:25:43 59° WSW 23:25:57 61° W 23:29:40 10° N
SL-19 R/B 4.5 23:22:43 10° N 23:27:59 64° WNW 23:30:50 29° SW
Cosmos 836 Rocket 4.4 23:28:13 10° NNW 23:33:33 81° ENE 23:34:41 56° SE
Lacrosse 5 2.5 23:33:08 10° WNW 23:37:50 39° SW 23:38:08 38° SW
Cosmos 1513 Rocket 4.5 23:37:25 10° N 23:43:39 68° E 23:45:17 48° SE
H-2A R/B 4.2 23:41:25 12° SW 23:44:14 18° W 23:47:48 10° NW
Cosmos 1503 Rocket 4.1 23:43:59 42° SW 23:45:39 70° WNW 23:50:50 10° NNE
Cosmos 2285 Rocket 4.0 23:42:28 10° NNW 23:48:49 79° WSW 23:50:38 50° S
Abrixas rocket 4.0 23:45:58 10° WNW 23:47:34 26° WNW 23:47:34 26° WNW
Cosmos 1869 3.4 23:46:43 10° N 23:50:18 66° NE 23:50:18 66° NE
CZ-4C R/B 3.7 23:53:11 58° WSW 23:53:16 58° W 23:57:34 10° NNW
SWAS 4.4 23:53:33 75° ENE 23:53:33 75° ENE 23:57:37 10° NNE
